Cloud_Cover
99 100 100 100 100 100 93 66 97 100 100 82 5 93 95 20 5 82 92 99 95 57 38 5 59 100 100 100 100 9 10 92 93 100 99 100 97 84 43 8 8 44 91 100
100 100 98 96 100 94 85 5 1 22 57 98 95 50 5 85 88 4 32 100 96 54 1 0 5 27 95 95 100 94 66 93 100 100 100 100 100 100 88 88 91 86 83 54
93 100 100 100 100 52 33 36 5 70 100 82 56 96 38 33 59 6 80 25 4 0 0 0 0 3 44 73 100 66 85 99 100 100 100 100 100 100 97 100 48 70 85 84
100 77 74 58 99 4 5 5 5 17 86 100 98 5 10 45 18 5 3 5 0 0 0 0 5 0 96 98 98 99 98 100 60 38 22 85 94 100 64 66 100 24 39 40
88 18 99 36 72 24 47 75 90 100 100 92 6 96 6 66 21 5 7 5 0 0 0 3 14 100 100 100 30 52 53 94 8 5 36 5 5 51 71 97 100 63 12 100
44 68 84 98 100 100 100 86 67 16 0 10 77 2 6 76 9 73 4 0 13 17 63 5 5 81 26 4 0 12 54 16 4 0 5 0 0 2 4 1 0 23 64 100
0 0 0 0 0 0 0 50 89 45 6 71 9 0 5 55 39 5 5 5 4 68 4 3 4 2 3 17 4 0 0 0 0 0 0 0 0 1 0 4 5 4 9 100
0 0 0 0 2 0 0 4 34 49 6 5 4 4 5 77 100 97 4 0 39 5 7 65 2 0 5 16 100 96 94 99 8 5 2 1 0 0 0 1 8 2 6 99
0 0 0 0 0 1 0 81 14 31 98 43 3 8 7 51 100 100 8 2 90 97 28 51 74 100 97 17 100 100 100 100 100 98 1 0 0 0 0 0 0 5 5 9
69 97 65 5 4 1 2 19 100 33 5 5 0 0 2 79 100 100 3 20 97 94 100 40 55 100 100 100 100 100 100 100 73 60 66 39 94 100 95 22 0 16 21 52
99 100 78 48 56 3 59 5 10 74 4 5 0 0 0 98 10 13 2 9 100 93 91 13 20 48 34 66 100 82 100 100 100 100 100 100 100 100 100 100 93 2 86 91
4 78 95 5 70 16 97 7 11 6 0 1 3 0 0 0 0 0 0 8 100 100 40 93 17 100 100 94 100 86 100 100 100 100 100 100 100 100 100 100 0 2 5 30
5 0 43 4 4 95 41 9 73 16 1 0 0 0 0 0 0 2 99 97 46 88 100 24 5 28 99 54 99 8 28 97 78 64 61 97 100 100 100 72 0 0 0 0
5 4 62 46 9 12 2 59 43 5 4 4 2 0 0 0 0 1 100 98 74 31 100 99 16 19 10 1 0 5 0 4 26 10 0 0 0 1 8 1 0 3 3 0
88 29 0 2 8 0 4 2 3 1 1 0 0 0 0 0 0 19 2 98 100 100 97 97 50 100 52 20 95 69 12 7 0 14 14 23 3 2 0 0 1 2 4 2
90 5 6 5 0 2 0 5 5 5 4 0 0 0 0 0 0 45 100 37 100 100 61 69 100 100 100 100 100 25 10 6 0 1 4 38 26 0 9 5 37 80 17 100
38 5 41 75 3 0 1 5 5 51 5 0 0 0 0 0 0 0 100 100 100 100 100 100 100 100 100 98 84 5 0 5 33 36 0 2 2 2 40 16 31 92 84 7
5 44 4 7 0 0 0 4 19 4 0 0 0 0 0 0 0 0 0 98 100 100 100 100 100 24 54 24 2 3 17 6 3 1 0 5 0 1 4 2 0 1 4 5
6 28 4 0 3 2 4 0 4 5 1 2 0 0 0 0 0 0 0 0 13 100 100 100 100 64 2 40 99 5 10 5 1 0 2 4 4 3 0 4 0 0 0 2
95 100 76 5 5 27 99 16 3 5 0 0 0 0 0 0 0 0 0 0 0 4 86 79 94 99 100 63 33 97 77 68 0 5 1 0 1 0 0 0 0 0 0 0
0 6 39 98 69 65 67 100 43 0 0 0 0 0 0 1 0 0 0 0 0 0 0 4 67 100 100 100 99 100 81 4 0 5 0 0 0 0 0 0 0 0 0 0
0 1 3 4 26 4 0 36 100 17 0 0 0 0 0 0 0 0 0 0 0 0 0 9 100 100 100 100 100 89 9 1 0 0 0 0 0 0 0 0 0 0 0 0
0 0 0 0 0 0 0 0 54 22 0 0 0 0 0 0 0 0 0 0 0 0 0 4 100 100 100 84 41 5 0 0 2 4 0 0 0 0 0 0 0 0 0 0
0 0 0 0 0 0 0 0 0 0 0 0 0 0 0 0 0 0 0 0 0 0 0 3 35 61 97 95 78 5 4 5 4 0 0 4 5 1 0 0 0 0 0 0
12 2 0 0 0 0 0 0 0 0 0 0 0 0 0 4 5 15 0 0 0 0 0 0 0 5 5 3 3 3 3 2 0 0 2 1 0 2 1 0 0 0 0 0
9 52 23 5 1 0 0 0 0 0 5 3 0 0 0 1 2 5 5 0 0 0 0 2 0 0 0 0 0 0 0 0 2 0 4 2 0 0 0 0 0 0 2 0